�������l�o���
Date,Time,MP-1(��Sv/h),MP-2(��Sv/h),MP-3(��Sv/h),MP-4(��Sv/h),MP-5(��Sv/h),MP-6(��Sv/h),MP-7(��Sv/h),����,����(m/s),���J
2016/08/07,00:00,0.426,0.253,0.442,0.406,0.378,0.206,0.178,��,0.5,��
2016/08/07,00:10,0.426,0.251,0.438,0.401,0.375,0.207,0.177,-,CALM,��
2016/08/07,00:20,0.423,0.249,0.440,0.402,0.372,0.208,0.178,-,CALM,��
2016/08/07,00:30,0.424,0.253,0.446,0.406,0.373,0.207,0.179,-,CALM,��
2016/08/07,00:40,0.429,0.251,0.440,0.405,0.379,0.207,0.178,-,CALM,��
2016/08/07,00:50,0.425,0.250,0.438,0.402,0.376,0.208,0.176,-,CALM,��
2016/08/07,01:00,0.423,0.252,0.443,0.403,0.372,0.207,0.179,���k��,0.6,��
2016/08/07,01:10,0.427,0.252,0.445,0.406,0.377,0.206,0.179,�k��,1.3,��
2016/08/07,01:20,0.427,0.250,0.441,0.405,0.376,0.207,0.177,�k��,0.9,��
2016/08/07,01:30,0.425,0.252,0.441,0.403,0.372,0.208,0.179,�k�k��,0.8,��
2016/08/07,01:40,0.421,0.253,0.445,0.407,0.375,0.207,0.179,-,CALM,��
2016/08/07,01:50,0.429,0.250,0.442,0.404,0.378,0.207,0.176,�k�k��,0.6,��
2016/08/07,02:00,0.426,0.251,0.441,0.402,0.374,0.208,0.178,�k�k��,1.9,��
2016/08/07,02:10,0.422,0.253,0.444,0.407,0.372,0.206,0.179,�k,1.5,��
2016/08/07,02:20,0.427,0.251,0.444,0.406,0.379,0.207,0.177,�k�k��,2.5,��
2016/08/07,02:30,0.428,0.251,0.441,0.402,0.377,0.208,0.178,�k,2.9,��
2016/08/07,02:40,0.425,0.252,0.443,0.405,0.374,0.208,0.179,�k,3.2,��
2016/08/07,02:50,0.424,0.251,0.444,0.406,0.378,0.207,0.178,�k,3.4,��
2016/08/07,03:00,0.429,0.252,0.441,0.402,0.375,0.207,0.178,�k,2.7,��
2016/08/07,03:10,0.425,0.252,0.441,0.403,0.372,0.206,0.178,�k�k��,0.7,��
2016/08/07,03:20,0.424,0.250,0.444,0.406,0.375,0.207,0.177,�k,3.1,��
2016/08/07,03:30,0.428,0.252,0.444,0.403,0.377,0.208,0.178,�k,2.5,��
2016/08/07,03:40,0.427,0.253,0.439,0.402,0.374,0.207,0.178,�k,4.0,��
2016/08/07,03:50,0.423,0.252,0.444,0.407,0.376,0.208,0.177,�k,3.0,��
2016/08/07,04:00,0.424,0.251,0.443,0.405,0.378,0.208,0.177,�k,2.2,��
2016/08/07,04:10,0.427,0.254,0.443,0.401,0.374,0.207,0.179,�k,0.9,��
2016/08/07,04:20,0.426,0.252,0.441,0.406,0.373,0.208,0.177,�k,2.4,��
2016/08/07,04:30,0.425,0.250,0.446,0.405,0.377,0.207,0.177,�k,3.3,��
2016/08/07,04:40,0.428,0.251,0.440,0.402,0.374,0.207,0.179,�k,3.4,��
2016/08/07,04:50,0.427,0.252,0.438,0.406,0.373,0.207,0.176,�k,4.0,��
2016/08/07,05:00,0.423,0.249,0.445,0.407,0.376,0.208,0.177,�k,3.1,��
2016/08/07,05:10,0.424,0.253,0.444,0.403,0.376,0.208,0.179,�k,2.5,��
2016/08/07,05:20,0.426,0.252,0.439,0.402,0.372,0.206,0.179,�k,2.8,��
2016/08/07,05:30,0.425,0.251,0.443,0.408,0.375,0.208,0.177,�k,3.3,��
2016/08/07,05:40,0.422,0.252,0.444,0.404,0.375,0.207,0.178,�k,3.2,��
2016/08/07,05:50,0.428,0.252,0.442,0.401,0.373,0.207,0.178,�k,3.0,��
2016/08/07,06:00,0.428,0.251,0.439,0.404,0.372,0.208,0.177,�k,4.8,��
2016/08/07,06:10,0.423,0.250,0.444,0.406,0.376,0.208,0.177,�k,3.6,��
2016/08/07,06:20,0.422,0.250,0.443,0.403,0.377,0.206,0.178,�k,3.7,��
2016/08/07,06:30,0.429,0.251,0.441,0.400,0.373,0.207,0.177,�k,3.8,��
2016/08/07,06:40,0.426,0.251,0.439,0.405,0.374,0.208,0.177,�k�k��,3.1,��
2016/08/07,06:50,0.423,0.249,0.442,0.405,0.372,0.208,0.176,�k,3.4,��
2016/08/07,07:00,0.420,0.251,0.445,0.402,0.377,0.206,0.175,�k�k��,2.8,��
2016/08/07,07:10,0.427,0.252,0.440,0.400,0.376,0.206,0.178,�k,3.0,��
2016/08/07,07:20,0.426,0.251,0.440,0.400,0.374,0.206,0.178,�k,2.5,��
2016/08/07,07:30,0.425,0.250,0.437,0.407,0.373,0.207,0.178,�k�k��,3.0,��
2016/08/07,07:40,0.424,0.249,0.438,0.407,0.371,0.207,0.177,�k,3.4,��
2016/08/07,07:50,0.420,0.250,0.443,0.404,0.371,0.206,0.176,�k,2.5,��
2016/08/07,08:00,0.423,0.250,0.445,0.402,0.371,0.206,0.176,�k�k��,3.8,��
2016/08/07,08:10,0.422,0.250,0.441,0.400,0.371,0.206,0.178,�k�k��,3.6,��
2016/08/07,08:20,0.419,0.249,0.441,0.402,0.374,0.207,0.179,�k�k��,4.0,��
2016/08/07,08:30,0.421,0.250,0.439,0.402,0.373,0.206,0.178,�k�k��,4.4,��
2016/08/07,08:40,0.423,0.251,0.439,0.404,0.373,0.206,0.178,�k��,4.7,��
2016/08/07,08:50,0.424,0.251,0.439,0.404,0.375,0.207,0.178,�k�k��,5.2,��
2016/08/07,09:00,0.424,0.252,0.441,0.404,0.375,0.209,0.177,�k�k��,5.0,��
2016/08/07,09:10,0.422,0.251,0.440,0.404,0.375,0.208,0.177,�k�k��,4.4,��
2016/08/07,09:20,0.424,0.251,0.438,0.403,0.374,0.207,0.177,�k��,3.8,��
2016/08/07,09:30,0.424,0.252,0.439,0.403,0.374,0.208,0.179,�k��,3.8,��
2016/08/07,09:40,0.424,0.251,0.440,0.403,0.373,0.208,0.179,�k��,4.0,��
2016/08/07,09:50,0.424,0.250,0.438,0.405,0.375,0.206,0.178,�k��,3.1,��
2016/08/07,10:00,0.425,0.250,0.439,0.405,0.375,0.207,0.178,�k��,3.3,��
2016/08/07,10:10,0.425,0.250,0.439,0.405,0.374,0.206,0.177,�k��,3.2,��
2016/08/07,10:20,0.427,0.251,0.439,0.408,0.376,0.207,0.178,�k��,3.4,��
2016/08/07,10:30,0.424,0.251,0.440,0.406,0.374,0.207,0.178,���k��,3.5,��
2016/08/07,10:40,0.427,0.252,0.443,0.407,0.373,0.208,0.178,�k��,3.3,��
2016/08/07,10:50,0.425,0.252,0.443,0.408,0.374,0.208,0.178,�k��,2.8,��
2016/08/07,11:00,0.426,0.250,0.443,0.407,0.373,0.208,0.178,���k��,2.5,��
2016/08/07,11:10,0.425,0.253,0.444,0.406,0.373,0.208,0.178,�k��,2.3,��
2016/08/07,11:20,0.423,0.251,0.445,0.407,0.374,0.208,0.178,�k��,3.3,��
2016/08/07,11:30,0.425,0.252,0.446,0.406,0.374,0.207,0.179,��,2.2,��
2016/08/07,11:40,0.425,0.251,0.448,0.406,0.374,0.208,0.178,�k��,3.1,��
2016/08/07,11:50,0.426,0.252,0.445,0.406,0.378,0.207,0.179,���k��,3.1,��
2016/08/07,12:00,0.424,0.251,0.445,0.406,0.375,0.207,0.179,��,3.4,��
2016/08/07,12:10,0.424,0.251,0.445,0.406,0.373,0.208,0.179,��,2.5,��
2016/08/07,12:20,0.425,0.251,0.446,0.405,0.375,0.207,0.180,��,1.4,��
2016/08/07,12:30,0.425,0.250,0.445,0.405,0.374,0.207,0.179,���쓌,1.3,��
2016/08/07,12:40,0.425,0.251,0.445,0.404,0.375,0.208,0.179,��,1.6,��
2016/08/07,12:50,0.425,0.251,0.445,0.406,0.377,0.207,0.179,���쓌,1.9,��
2016/08/07,13:00,0.426,0.251,0.443,0.407,0.374,0.206,0.178,���쓌,2.1,��
2016/08/07,13:10,0.423,0.252,0.444,0.408,0.375,0.208,0.178,��,2.9,��
2016/08/07,13:20,0.423,0.252,0.443,0.408,0.374,0.207,0.178,���쓌,2.5,��
2016/08/07,13:30,0.423,0.251,0.444,0.406,0.374,0.207,0.179,�쓌,1.7,��
2016/08/07,13:40,0.422,0.250,0.444,0.406,0.375,0.207,0.177,���쓌,2.2,��
2016/08/07,13:50,0.423,0.251,0.444,0.404,0.375,0.208,0.178,��,2.1,��
2016/08/07,14:00,0.426,0.251,0.443,0.405,0.376,0.207,0.179,���쓌,1.8,��
2016/08/07,14:10,0.424,0.251,0.444,0.405,0.376,0.207,0.177,��,1.6,��
2016/08/07,14:20,0.424,0.251,0.442,0.406,0.375,0.207,0.179,���쓌,1.4,��
2016/08/07,14:30,0.423,0.251,0.441,0.406,0.375,0.208,0.178,���쓌,1.3,��
2016/08/07,14:40,0.424,0.251,0.443,0.404,0.376,0.207,0.178,��,1.8,��
2016/08/07,14:50,0.427,0.251,0.440,0.406,0.374,0.208,0.179,���쓌,2.6,��
2016/08/07,15:00,0.426,0.252,0.443,0.403,0.376,0.208,0.177,��,2.8,��
2016/08/07,15:10,0.424,0.251,0.443,0.401,0.373,0.208,0.178,��,2.5,��
2016/08/07,15:20,0.424,0.251,0.441,0.401,0.373,0.209,0.176,��,3.1,��
2016/08/07,15:30,0.425,0.250,0.440,0.400,0.374,0.208,0.177,���k��,3.2,��
2016/08/07,15:40,0.423,0.249,0.440,0.399,0.373,0.208,0.175,���k��,3.0,��
2016/08/07,15:50,0.424,0.249,0.441,0.402,0.373,0.208,0.176,��,2.4,��
2016/08/07,16:00,0.422,0.250,0.438,0.403,0.375,0.207,0.176,��,2.8,��
2016/08/07,16:10,0.422,0.250,0.438,0.400,0.375,0.207,0.177,���k��,2.5,��
2016/08/07,16:20,0.424,0.251,0.439,0.402,0.374,0.208,0.176,���k��,2.9,��
2016/08/07,16:30,0.422,0.250,0.441,0.402,0.373,0.207,0.177,��,2.8,��
2016/08/07,16:40,0.422,0.249,0.439,0.402,0.375,0.207,0.175,��,2.5,��
2016/08/07,16:50,0.423,0.250,0.440,0.402,0.372,0.206,0.177,���k��,2.2,��
2016/08/07,17:00,0.420,0.250,0.440,0.403,0.371,0.206,0.176,��,2.6,��
2016/08/07,17:10,0.423,0.249,0.439,0.408,0.372,0.206,0.175,���k��,2.5,��
2016/08/07,17:20,0.424,0.251,0.440,0.409,0.370,0.206,0.177,���k��,2.2,��
2016/08/07,17:30,0.428,0.253,0.440,0.407,0.370,0.205,0.177,��,1.1,��
2016/08/07,17:40,0.428,0.253,0.448,0.405,0.371,0.207,0.177,���k��,2.3,��
2016/08/07,17:50,0.426,0.251,0.448,0.402,0.372,0.206,0.176,���k��,2.0,��
2016/08/07,18:00,0.423,0.251,0.444,0.400,0.372,0.207,0.177,�k��,1.2,��
2016/08/07,18:10,0.421,0.249,0.442,0.403,0.371,0.206,0.176,���k��,1.9,��
2016/08/07,18:20,0.422,0.250,0.439,0.408,0.370,0.207,0.176,�k��,2.0,��
2016/08/07,18:30,0.428,0.251,0.440,0.407,0.370,0.208,0.178,�k��,2.1,��
2016/08/07,18:40,0.429,0.251,0.446,0.405,0.378,0.207,0.177,�k�k��,2.2,��
2016/08/07,18:50,0.426,0.250,0.447,0.404,0.377,0.206,0.177,�k��,1.6,��
2016/08/07,19:00,0.423,0.249,0.444,0.402,0.375,0.208,0.175,���k��,1.3,��
2016/08/07,19:10,0.423,0.250,0.441,0.408,0.371,0.207,0.177,��,2.0,��
2016/08/07,19:20,0.429,0.250,0.439,0.407,0.371,0.207,0.178,���k��,2.2,��
2016/08/07,19:30,0.426,0.250,0.446,0.404,0.375,0.206,0.176,�k��,2.0,��
2016/08/07,19:40,0.423,0.251,0.447,0.402,0.379,0.207,0.176,�k��,2.9,��
2016/08/07,19:50,0.423,0.252,0.443,0.406,0.374,0.207,0.177,�k��,2.4,��
2016/08/07,20:00,0.428,0.251,0.441,0.406,0.371,0.207,0.178,�k�k��,2.2,��
2016/08/07,20:10,0.427,0.249,0.443,0.404,0.372,0.206,0.176,�k�k��,1.6,��
2016/08/07,20:20,0.424,0.252,0.446,0.403,0.376,0.207,0.175,�k�k��,1.3,��
2016/08/07,20:30,0.422,0.250,0.444,0.407,0.375,0.208,0.179,�k,1.2,��
2016/08/07,20:40,0.429,0.249,0.441,0.408,0.372,0.206,0.177,�k,1.6,��
2016/08/07,20:50,0.428,0.251,0.443,0.404,0.373,0.207,0.176,�k,2.2,��
2016/08/07,21:00,0.424,0.251,0.448,0.402,0.376,0.207,0.178,�k,1.8,��
2016/08/07,21:10,0.421,0.250,0.444,0.407,0.375,0.207,0.179,�k,1.6,��
2016/08/07,21:20,0.430,0.250,0.442,0.409,0.370,0.207,0.176,�k,1.5,��
2016/08/07,21:30,0.429,0.252,0.441,0.403,0.375,0.207,0.177,�k�k��,1.3,��
2016/08/07,21:40,0.423,0.252,0.448,0.403,0.377,0.207,0.179,�k,1.6,��
2016/08/07,21:50,0.423,0.250,0.445,0.408,0.374,0.208,0.178,�k�k��,2.0,��
2016/08/07,22:00,0.427,0.251,0.441,0.406,0.372,0.206,0.176,�k�k��,1.8,��
2016/08/07,22:10,0.426,0.252,0.444,0.402,0.375,0.207,0.178,�k�k��,2.2,��
2016/08/07,22:20,0.422,0.250,0.446,0.405,0.377,0.207,0.178,�k��,1.9,��
2016/08/07,22:30,0.427,0.252,0.444,0.408,0.374,0.206,0.177,�k�k��,1.9,��
2016/08/07,22:40,0.429,0.252,0.440,0.405,0.372,0.207,0.176,�k�k��,2.8,��
2016/08/07,22:50,0.425,0.251,0.445,0.404,0.378,0.207,0.179,�k��,0.6,��
2016/08/07,23:00,0.421,0.250,0.446,0.407,0.375,0.206,0.178,�k�k��,0.8,��
2016/08/07,23:10,0.428,0.253,0.444,0.406,0.371,0.207,0.177,�k,3.8,��
2016/08/07,23:20,0.427,0.251,0.440,0.402,0.375,0.208,0.178,�k�k��,3.2,��
2016/08/07,23:30,0.425,0.250,0.445,0.405,0.377,0.207,0.178,�k�k��,2.2,��
2016/08/07,23:40,0.425,0.253,0.444,0.407,0.372,0.207,0.176,�k,2.2,��
2016/08/07,23:50,0.428,0.250,0.442,0.406,0.373,0.208,0.177,�k,3.0,��
